User: anonymous   Login
Location: Unspecified
(0.0000°N, 0.0000°E)
Time: 20:38:35
(UTC+00:00)
Language:

NOSS 8 (A) - Orbit

View from above orbital plane
View from above orbital plane
View from above satellite
View from above satellite

Ground track
Ground track

The orbit data is extracted from the following two-line orbital elements,

1 17997U 87043A   21104.84181940 0.00003407  00000-0  23389-3 0    03
2 17997  63.2716   1.3531 0939554  71.4610 288.5308 13.50550015    06
Epoch (UTC): 14 April 2021 20:12:13
Eccentricity: 0.0939554
inclination: 63.2716°
perigee height: 370 km
apogee height: 1770 km
right ascension of ascending node: 1.3531°
argument of perigee: 71.4610°
revolutions per day: 13.50550015
mean anomaly at epoch: 288.5308°
orbit number at epoch: 0

The dashed part of the orbit path shows where the satellite is in the earth's shadow,  

DLR